GW3780 Weather Reports


Display with metric or nautical units.
time (UTC)temp
F
wind
direction
speed
MPH
gust
MPH
rain 1hr
in
rain 24hr
in
rain mn
in
humidity
%
barometer
mb
20260902001010 84 339 0.0 1.0 0.00 0.00 0.00 73 1016.3
20260902000505 84 333 0.0 1.0 0.00 0.00 0.00 72 1016.4
20260902000000 84 305 0.0 2.0 0.00 0.00 0.00 72 1016.4
20260901235455 85 325 1.0 1.0 0.00 0.00 0.00 71 1016.1
20260901234950 85 303 1.0 1.0 0.00 0.00 0.00 70 1016.4
20260901234444 86 309 1.0 1.0 0.00 0.00 0.00 70 1016.1
20260901233939 86 309 1.0 2.0 0.00 0.00 0.00 69 1016.4
20260901233434 86 296 1.0 2.0 0.00 0.00 0.00 67 1016.4
20260901232930 86 300 0.0 1.0 0.00 0.00 0.00 67 1016.3
20260901232430 87 309 0.0 1.0 0.00 0.00 0.00 67 1016.6
20260901231926 87 318 0.0 1.0 0.00 0.00 0.00 67 1016.4
20260901231422 87 324 1.0 2.0 0.00 0.00 0.00 66 1016.4
20260901230918 88 321 1.0 2.0 0.00 0.00 0.00 66 1016.4
20260901230417 88 314 2.0 2.0 0.00 0.00 0.00 65 1016.5
20260901225913 89 323 1.0 2.0 0.00 0.00 0.00 65 1016.7
20260901225413 88 311 1.0 2.0 0.00 0.00 0.00 65 1016.4
20260901224907 89 295 1.0 2.0 0.00 0.00 0.00 64 1016.5
20260901224404 89 331 1.0 2.0 0.00 0.00 0.00 63 1016.6
20260901223900 89 276 1.0 2.0 0.00 0.00 0.00 61 1016.7
20260901223355 89 323 2.0 2.0 0.00 0.00 0.00 62 1016.8
20260901222851 90 316 0.0 1.0 0.00 0.00 0.00 63 1016.6
20260901222347 90 316 2.0 2.0 0.00 0.00 0.00 61 1016.7
20260901221843 90 314 1.0 2.0 0.00 0.00 0.00 62 1016.6
20260901221338 90 313 2.0 2.0 0.00 0.00 0.00 63 1016.9
20260901220837 91 310 1.0 2.0 0.00 0.00 0.00 62 1016.9
20260901220337 91 316 0.0 2.0 0.00 0.00 0.00 60 1016.9
20260901215836 91 291 1.0 3.0 0.00 0.00 0.00 59 1016.9
20260901215335 91 303 2.0 2.0 0.00 0.00 0.00 60 1016.8
20260901214834 91 299 0.0 2.0 0.00 0.00 0.00 58 1016.8
20260901214333 91 289 2.0 2.0 0.00 0.00 0.00 59 1016.9
20260901213828 92 308 1.0 2.0 0.00 0.00 0.00 60 1016.8
20260901213327 92 264 0.0 2.0 0.00 0.00 0.00 57 1016.9
20260901212822 92 227 2.0 2.0 0.00 0.00 0.00 57 1017.0
20260901212318 92 319 2.0 2.0 0.00 0.00 0.00 56 1016.8
20260901211814 92 287 2.0 2.0 0.00 0.00 0.00 58 1016.8
20260901211310 92 294 0.0 2.0 0.00 0.00 0.00 56 1016.7
20260901210805 92 301 2.0 2.0 0.00 0.00 0.00 62 1017.1
20260901210301 92 287 0.0 2.0 0.00 0.00 0.00 59 1016.9
20260901205757 92 318 1.0 2.0 0.00 0.00 0.00 58 1017.1
20260901205256 92 321 2.0 2.0 0.00 0.00 0.00 55 1017.0
20260901204752 92 297 1.0 3.0 0.00 0.00 0.00 59 1017.1
20260901204248 92 313 1.0 2.0 0.00 0.00 0.00 56 1017.1
20260901203748 93 304 2.0 2.0 0.00 0.00 0.00 61 1017.0
20260901203247 93 232 2.0 3.0 0.00 0.00 0.00 54 1017.1
20260901202742 92 333 2.0 2.0 0.00 0.00 0.00 57 1017.1
20260901202238 93 326 0.0 2.0 0.00 0.00 0.00 53 1017.2
20260901201733 92 320 2.0 2.0 0.00 0.00 0.00 54 1017.3
20260901201232 93 317 2.0 2.0 0.00 0.00 0.00 53 1017.6
20260901200727 93 283 1.0 3.0 0.00 0.00 0.00 53 1017.5
20260901200222 93 319 0.0 2.0 0.00 0.00 0.00 55 1017.6
20260901195720 93 297 2.0 2.0 0.00 0.00 0.00 53 1017.5
20260901195214 93 207 1.0 3.0 0.00 0.00 0.00 54 1017.5
20260901194710 93 313 1.0 2.0 0.00 0.00 0.00 53 1017.4
20260901194158 93 305 2.0 2.0 0.00 0.00 0.00 58 1017.4
20260901193655 93 300 2.0 2.0 0.00 0.00 0.00 55 1017.6
20260901193154 93 355 0.0 2.0 0.00 0.00 0.00 53 1017.7
20260901192649 93 315 3.0 3.0 0.00 0.00 0.00 55 1017.7
20260901192144 93 295 2.0 2.0 0.00 0.00 0.00 52 1017.6
20260901191640 93 288 1.0 2.0 0.00 0.00 0.00 52 1017.6
20260901191136 93 312 0.0 2.0 0.00 0.00 0.00 55 1017.8
20260901190632 94 298 2.0 2.0 0.00 0.00 0.00 54 1017.8
20260901190131 93 308 2.0 4.0 0.00 0.00 0.00 54 1017.8
20260901185630 92 310 2.0 3.0 0.00 0.00 0.00 54 1017.8
20260901185128 93 303 2.0 3.0 0.00 0.00 0.00 53 1017.9
20260901184624 93 303 0.0 2.0 0.00 0.00 0.00 54 1017.7
20260901184119 93 322 2.0 5.0 0.00 0.00 0.00 55 1018.1
20260901183615 95 256 1.0 2.0 0.00 0.00 0.00 52 1018.2
20260901183109 94 315 0.0 2.0 0.00 0.00 0.00 52 1018.1
20260901182606 94 282 0.0 3.0 0.00 0.00 0.00 53 1018.2
20260901182105 94 302 3.0 3.0 0.00 0.00 0.00 54 1018.3
20260901181604 96 316 2.0 3.0 0.00 0.00 0.00 52 1018.5
20260901181059 96 311 2.0 3.0 0.00 0.00 0.00 51 1018.2
20260901180558 95 326 3.0 4.0 0.00 0.00 0.00 51 1018.0
20260901180052 95 283 2.0 3.0 0.00 0.00 0.00 54 1018.0
20260901175545 95 307 3.0 4.0 0.00 0.00 0.00 51 1018.0
20260901175040 94 280 2.0 3.0 0.00 0.00 0.00 52 1017.9
20260901174531 94 108 1.0 3.0 0.00 0.00 0.00 52 1017.9
20260901174026 94 197 1.0 2.0 0.00 0.00 0.00 52 1017.9
20260901173526 94 269 0.0 2.0 0.00 0.00 0.00 52 1018.0
20260901173022 93 296 1.0 3.0 0.00 0.00 0.00 54 1018.0
20260901172517 94 295 2.0 3.0 0.00 0.00 0.00 52 1018.1
20260901172015 93 355 1.0 3.0 0.00 0.00 0.00 49 1018.0
20260901171514 93 324 1.0 4.0 0.00 0.00 0.00 49 1018.0
20260901171014 92 292 0.0 2.0 0.00 0.00 0.00 53 1018.1
20260901170508 92 306 2.0 3.0 0.00 0.00 0.00 58 1018.2
20260901170003 92 325 2.0 3.0 0.00 0.00 0.00 57 1018.2
20260901165457 91 255 0.0 2.0 0.00 0.00 0.00 57 1018.2
20260901164953 91 294 0.0 2.0 0.00 0.00 0.00 60 1018.4
20260901164448 91 305 3.0 3.0 0.00 0.00 0.00 63 1018.3
20260901163942 91 334 1.0 2.0 0.00 0.00 0.00 62 1018.3
20260901163437 90 272 1.0 2.0 0.00 0.00 0.00 64 1018.7
20260901162937 90 298 2.0 6.0 0.00 0.00 0.00 64 1018.6
20260901162432 90 290 0.0 3.0 0.00 0.00 0.00 65 1018.7
20260901161926 90 195 0.0 4.0 0.00 0.00 0.00 65 1018.8
20260901161425 90 224 0.0 1.0 0.00 0.00 0.00 64 1019.1
20260901160921 90 318 2.0 5.0 0.00 0.00 0.00 66 1019.0
20260901160416 89 304 2.0 2.0 0.00 0.00 0.00 68 1018.8
20260901155915 89 186 0.0 2.0 0.00 0.00 0.00 67 1019.0
20260901155410 89 323 1.0 2.0 0.00 0.00 0.00 71 1019.2
20260901154907 89 293 0.0 2.0 0.00 0.00 0.00 69 1019.0
20260901154406 89 328 4.0 4.0 0.00 0.00 0.00 67 1019.1
20260901153900 88 337 1.0 2.0 0.00 0.00 0.00 69 1019.2
20260901153354 88 336 1.0 2.0 0.00 0.00 0.00 72 1019.2
20260901152853 88 282 2.0 2.0 0.00 0.00 0.00 72 1019.2
20260901152349 87 204 1.0 2.0 0.00 0.00 0.00 72 1019.3
20260901151843 87 309 0.0 2.0 0.00 0.00 0.00 74 1019.2
20260901151338 87 292 2.0 2.0 0.00 0.00 0.00 75 1019.3
20260901150837 87 171 0.0 2.0 0.00 0.00 0.00 74 1019.3
20260901150335 86 242 0.0 2.0 0.00 0.00 0.00 75 1019.4
20260901145832 86 269 0.0 3.0 0.00 0.00 0.00 77 1019.6
20260901145327 86 89 0.0 2.0 0.00 0.00 0.00 76 1019.5
20260901144822 86 315 0.0 2.0 0.00 0.00 0.00 76 1019.7
20260901144318 86 254 0.0 1.0 0.00 0.00 0.00 76 1019.6
20260901143814 85 356 2.0 2.0 0.00 0.00 0.00 77 1019.5
20260901143310 85 180 0.0 2.0 0.00 0.00 0.00 77 1019.4
20260901142806 85 299 0.0 1.0 0.00 0.00 0.00 78 1019.5
20260901142306 84 178 0.0 2.0 0.00 0.00 0.00 78 1019.5
20260901141800 85 217 0.0 1.0 0.00 0.00 0.00 78 1019.4
20260901141255 84 147 0.0 2.0 0.00 0.00 0.00 79 1019.5
20260901140754 84 315 0.0 3.0 0.00 0.00 0.00 79 1019.4
20260901140252 84 297 0.0 0.0 0.00 0.00 0.00 81 1019.4
20260901135747 84 160 1.0 2.0 0.00 0.00 0.00 81 1019.6
20260901135242 83 59 0.0 1.0 0.00 0.00 0.00 82 1019.4
20260901134738 83 301 1.0 2.0 0.00 0.00 0.00 83 1019.5
20260901134237 82 317 1.0 1.0 0.00 0.00 0.00 84 1019.4
20260901133736 82 212 0.0 2.0 0.00 0.00 0.00 84 1019.3
20260901133231 82 304 0.0 1.0 0.00 0.00 0.00 84 1019.5
20260901132729 81 295 1.0 1.0 0.00 0.00 0.00 85 1019.4
20260901132225 81 311 0.0 2.0 0.00 0.00 0.00 85 1019.6
20260901131719 81 307 0.0 2.0 0.00 0.00 0.00 86 1019.6
20260901131219 81 309 0.0 1.0 0.00 0.00 0.00 86 1019.5
20260901130714 81 154 0.0 1.0 0.00 0.00 0.00 85 1019.6
20260901130212 82 324 0.0 0.0 0.00 0.00 0.00 85 1019.7
20260901125711 82 263 0.0 2.0 0.00 0.00 0.00 84 1019.7
20260901125206 82 269 0.0 1.0 0.00 0.00 0.00 85 1019.6
20260901124700 81 310 0.0 1.0 0.00 0.00 0.00 86 1019.5
20260901124155 80 333 0.0 1.0 0.00 0.00 0.00 89 1019.4
20260901123650 78 284 0.0 1.0 0.00 0.00 0.00 91 1019.6
20260901123149 78 281 0.0 0.0 0.00 0.00 0.00 92 1019.7
20260901122648 77 320 0.0 1.0 0.00 0.00 0.00 93 1019.7
20260901122143 77 193 0.0 2.0 0.00 0.00 0.00 94 1019.6
20260901121637 76 325 0.0 1.0 0.00 0.00 0.00 96 1019.4
20260901121132 75 315 0.0 1.0 0.00 0.00 0.00 97 1019.4
20260901120627 75 309 0.0 0.0 0.00 0.00 0.00 97 1019.6
20260901120122 75 333 0.0 0.0 0.00 0.00 0.00 98 1019.9
20260901115617 75 337 0.0 0.0 0.00 0.00 0.00 98 1019.7
20260901115114 74 15 0.0 1.0 0.00 0.00 0.00 98 1019.5
20260901114610 74 325 0.0 1.0 0.00 0.00 0.00 98 1019.5
20260901114108 74 333 0.0 0.0 0.00 0.00 0.00 98 1019.7
20260901113602 74 333 0.0 1.0 0.00 0.00 0.00 98 1019.6
20260901113058 74 340 1.0 1.0 0.00 0.00 0.00 98 1019.5
20260901112557 74 339 0.0 1.0 0.00 0.00 0.00 98 1019.1
20260901112052 74 0 0.0 1.0 0.00 0.00 0.00 98 1019.3
20260901111551 74 322 0.0 0.0 0.00 0.00 0.00 98 1019.2
20260901111049 74 202 0.0 1.0 0.00 0.00 0.00 98 1019.2
20260901110545 73 320 0.0 0.0 0.00 0.00 0.00 98 1019.1
20260901110041 74 336 0.0 0.0 0.00 0.00 0.00 97 1019.2
20260901105537 74 205 0.0 1.0 0.00 0.00 0.00 97 1019.1
20260901105036 74 301 1.0 1.0 0.00 0.00 0.00 97 1019.1
20260901104532 74 273 1.0 1.0 0.00 0.00 0.00 97 1018.9
20260901104027 74 222 1.0 1.0 0.00 0.00 0.00 97 1018.9
20260901103522 74 282 0.0 1.0 0.00 0.00 0.00 97 1018.9
20260901103018 74 253 0.0 2.0 0.00 0.00 0.00 97 1019.0
20260901102518 74 205 0.0 2.0 0.00 0.00 0.00 97 1018.8
20260901102012 74 233 1.0 2.0 0.00 0.00 0.00 97 1018.9
20260901101508 74 195 0.0 1.0 0.00 0.00 0.00 97 1018.8
20260901101002 74 221 0.0 1.0 0.00 0.00 0.00 97 1018.9
20260901100502 74 269 0.0 1.0 0.00 0.00 0.00 97 1019.0
20260901100000 74 336 0.0 1.0 0.00 0.00 0.00 97 1019.3
20260901095459 74 319 0.0 1.0 0.00 0.00 0.00 97 1019.3
20260901094957 74 172 0.0 0.0 0.00 0.00 0.00 97 1019.1
20260901094452 74 315 0.0 1.0 0.00 0.00 0.00 97 1019.0
20260901093947 74 349 0.0 1.0 0.00 0.00 0.00 98 1019.1
20260901093441 74 297 0.0 1.0 0.00 0.00 0.00 98 1018.9
20260901092936 74 0 0.0 1.0 0.00 0.00 0.00 98 1018.8
20260901092432 74 322 0.0 1.0 0.00 0.00 0.00 98 1018.9
20260901091928 74 319 1.0 2.0 0.00 0.00 0.00 98 1018.9
20260901091427 73 309 0.0 1.0 0.00 0.00 0.00 98 1018.9
20260901090923 74 299 0.0 1.0 0.00 0.00 0.00 98 1018.9
20260901090422 73 321 0.0 1.0 0.00 0.00 0.00 98 1019.1
20260901085918 73 309 0.0 0.0 0.00 0.00 0.00 98 1019.0
20260901085414 73 310 0.0 1.0 0.00 0.00 0.00 98 1019.0
20260901084910 73 308 1.0 1.0 0.00 0.00 0.00 98 1018.9
20260901084406 73 325 0.0 0.0 0.00 0.00 0.00 97 1018.9
20260901083901 73 316 1.0 2.0 0.00 0.00 0.00 97 1019.1
20260901083356 73 333 0.0 1.0 0.00 0.00 0.00 97 1018.9
20260901082854 73 322 1.0 2.0 0.00 0.00 0.00 97 1018.7
20260901082349 73 329 0.0 0.0 0.00 0.00 0.00 98 1018.8
20260901081838 73 297 0.0 2.0 0.00 0.00 0.00 98 1018.9
20260901081334 73 323 1.0 2.0 0.00 0.00 0.00 98 1018.9
20260901080833 73 301 1.0 2.0 0.00 0.00 0.00 97 1019.0
20260901080328 73 326 0.0 1.0 0.00 0.00 0.00 97 1019.0
20260901075828 73 315 0.0 1.0 0.00 0.00 0.00 97 1019.1
20260901075323 73 332 1.0 2.0 0.00 0.00 0.00 97 1018.9
20260901074818 73 304 0.0 1.0 0.00 0.00 0.00 97 1019.1
20260901074312 74 299 0.0 1.0 0.00 0.00 0.00 97 1019.0
20260901073808 74 336 0.0 1.0 0.00 0.00 0.00 97 1018.9
20260901073303 74 343 0.0 0.0 0.00 0.00 0.00 97 1019.0
20260901072759 74 324 0.0 1.0 0.00 0.00 0.00 97 1018.9
20260901072254 74 322 0.0 1.0 0.00 0.00 0.00 97 1019.0
20260901071749 74 326 0.0 1.0 0.00 0.00 0.00 96 1019.2
20260901071248 74 0 0.0 1.0 0.00 0.00 0.00 96 1019.1
20260901070747 74 343 0.0 1.0 0.00 0.00 0.00 96 1019.3
20260901070243 74 322 0.0 1.0 0.00 0.00 0.00 96 1019.4
20260901065741 74 327 1.0 1.0 0.00 0.00 0.00 96 1019.4
20260901065237 74 352 0.0 1.0 0.00 0.00 0.00 96 1019.3
20260901064733 74 348 0.0 1.0 0.00 0.00 0.00 96 1019.5
20260901064229 74 331 0.0 1.0 0.00 0.00 0.00 96 1019.5
20260901063726 74 304 0.0 1.0 0.00 0.00 0.00 96 1019.5
20260901063222 74 343 0.0 1.0 0.00 0.00 0.00 96 1019.6
20260901062718 75 333 0.0 1.0 0.00 0.00 0.00 96 1019.4
20260901062213 75 332 0.0 1.0 0.00 0.00 0.00 96 1019.6
20260901061709 75 352 0.0 0.0 0.00 0.00 0.00 95 1019.7
20260901061209 75 336 0.0 1.0 0.00 0.00 0.00 95 1019.7
20260901060704 75 344 0.0 1.0 0.00 0.00 0.00 95 1019.6
20260901060159 75 343 0.0 1.0 0.00 0.00 0.00 94 1019.9
20260901055655 75 352 0.0 0.0 0.00 0.00 0.00 94 1019.8
20260901055151 75 309 0.0 1.0 0.00 0.00 0.00 94 1019.7
20260901054648 75 339 0.0 0.0 0.00 0.00 0.00 94 1019.7
20260901054144 75 352 0.0 1.0 0.00 0.00 0.00 94 1019.9
20260901053640 75 0 0.0 1.0 0.00 0.00 0.00 93 1019.8
20260901053135 75 346 0.0 0.0 0.00 0.00 0.00 93 1020.0
20260901052630 75 333 0.0 0.0 0.00 0.00 0.00 93 1020.0
20260901052126 76 329 0.0 0.0 0.00 0.00 0.00 92 1020.0
20260901051625 76 304 0.0 0.0 0.00 0.00 0.00 92 1019.9
20260901051124 76 283 0.0 0.0 0.00 0.00 0.00 92 1020.2
20260901050620 76 317 0.0 0.0 0.00 0.00 0.00 91 1019.9
20260901050115 76 297 0.0 1.0 0.00 0.00 0.00 91 1020.2
20260901045609 76 315 0.0 0.0 0.00 0.00 0.00 90 1020.3
20260901045104 76 309 0.0 0.0 0.00 0.00 0.00 90 1020.2
20260901044600 77 333 0.0 0.0 0.00 0.00 0.00 90 1020.3
20260901044055 77 322 0.0 0.0 0.00 0.00 0.00 89 1020.0
20260901043551 77 322 0.0 0.0 0.00 0.00 0.00 89 1020.2
20260901043046 77 293 0.0 0.0 0.00 0.00 0.00 89 1020.3
20260901042546 77 286 0.0 1.0 0.00 0.00 0.00 88 1020.2
20260901042041 77 304 0.0 1.0 0.00 0.00 0.00 88 1020.3
20260901041536 77 343 0.0 1.0 0.00 0.00 0.00 88 1020.1
20260901041031 78 333 0.0 1.0 0.00 0.00 0.00 87 1020.4
20260901040530 78 296 0.0 1.0 0.00 0.00 0.00 88 1019.9
20260901040025 77 310 1.0 2.0 0.00 0.00 0.00 88 1020.1
20260901035523 78 326 1.0 2.0 0.00 0.00 0.00 88 1020.1
20260901035021 77 317 0.0 1.0 0.00 0.00 0.00 88 1020.1
20260901034516 78 319 0.0 1.0 0.00 0.00 0.00 88 1020.1
20260901034011 78 326 0.0 1.0 0.00 0.00 0.00 87 1019.7
20260901033509 78 332 1.0 1.0 0.00 0.00 0.00 87 1020.1
20260901033004 78 333 1.0 2.0 0.00 0.00 0.00 87 1020.0
20260901032458 78 328 1.0 1.0 0.00 0.00 0.00 87 1019.9
20260901031952 78 336 0.0 1.0 0.00 0.00 0.00 86 1019.9
20260901031448 78 326 1.0 1.0 0.00 0.00 0.00 86 1019.8
20260901030948 78 333 0.0 1.0 0.00 0.00 0.00 86 1019.8
20260901030444 79 329 0.0 1.0 0.00 0.00 0.00 85 1019.9
20260901025942 79 332 0.0 2.0 0.00 0.00 0.00 85 1020.1
20260901025438 79 275 0.0 1.0 0.00 0.00 0.00 85 1019.9
20260901024937 79 307 1.0 2.0 0.00 0.00 0.00 85 1019.9
20260901024432 79 336 0.0 1.0 0.00 0.00 0.00 85 1020.0
20260901023930 79 333 0.0 1.0 0.00 0.00 0.00 84 1020.0
20260901023425 79 333 0.0 1.0 0.00 0.00 0.00 84 1019.9
20260901022920 80 322 0.0 1.0 0.00 0.00 0.00 83 1019.8
20260901022416 80 309 0.0 1.0 0.00 0.00 0.00 83 1019.7
20260901021911 80 0 0.0 1.0 0.00 0.00 0.00 83 1020.0
20260901021407 80 326 0.0 0.0 0.00 0.00 0.00 83 1020.1
20260901020902 80 322 0.0 1.0 0.00 0.00 0.00 82 1020.1
20260901020357 80 296 1.0 2.0 0.00 0.00 0.00 82 1020.1
20260901015856 80 309 0.0 1.0 0.00 0.00 0.00 82 1020.3
20260901015353 81 310 1.0 2.0 0.00 0.00 0.00 81 1020.1
20260901014851 81 321 1.0 2.0 0.00 0.00 0.00 81 1020.4
20260901014348 81 287 2.0 2.0 0.00 0.00 0.00 81 1020.0
20260901013843 81 233 0.0 2.0 0.00 0.00 0.00 81 1020.2
20260901013339 81 315 0.0 2.0 0.00 0.00 0.00 81 1020.1
20260901012834 81 296 0.0 2.0 0.00 0.00 0.00 80 1020.1
20260901012329 81 311 2.0 2.0 0.00 0.00 0.00 80 1020.1
20260901011825 81 303 0.0 1.0 0.00 0.00 0.00 80 1019.8
20260901011320 81 92 1.0 2.0 0.00 0.00 0.00 80 1019.9
20260901010813 82 318 1.0 2.0 0.00 0.00 0.00 79 1019.9
20260901010308 82 310 0.0 2.0 0.00 0.00 0.00 79 1019.9
20260901005807 82 324 0.0 2.0 0.00 0.00 0.00 78 1019.8
20260901005306 82 76 0.0 2.0 0.00 0.00 0.00 78 1019.9
20260901004756 82 14 0.0 2.0 0.00 0.00 0.00 78 1019.7
20260901004251 83 315 2.0 2.0 0.00 0.00 0.00 78 1019.7
20260901003751 83 25 0.0 2.0 0.00 0.00 0.00 78 1019.9
20260901003245 83 327 1.0 2.0 0.00 0.00 0.00 78 1019.9
20260901002739 83 324 1.0 2.0 0.00 0.00 0.00 78 1019.8
20260901002234 83 322 1.0 2.0 0.00 0.00 0.00 78 1019.8
20260901001729 83 335 0.0 2.0 0.00 0.00 0.00 78 1019.8
20260901001224 83 317 1.0 2.0 0.00 0.00 0.00 78 1019.8